Location: Bathurst
(33.4193°S, 149.5775°E)
Time: 11:43:37
(UTC+10:00)

A-11 Canister half - Visible Passes

Search period start: 13 June 2021 00:00
Search period end: 23 June 2021 00:00
Orbit: 1513 x 1686 km, 47.2° (Epoch: 12 June)

Date Brightness Start Highest point End Pass type
(mag) Time Alt. Az. Time Alt. Az. Time Alt. Az.
13 Jun 9.3 18:40:06 10° WNW 18:49:26 59° SSW 18:55:12 27° SE visible
13 Jun 10.2 20:47:27 10° WSW 20:53:24 31° SW 20:53:24 31° SW visible
14 Jun 9.3 18:17:06 10° WNW 18:26:28 61° SSW 18:33:36 21° SE visible
14 Jun 10.0 20:24:24 10° WSW 20:31:48 35° SSW 20:31:48 35° SSW visible
15 Jun 9.3 17:54:07 10° WNW 18:03:29 64° SSW 18:11:58 15° SE visible
15 Jun 9.8 20:01:20 10° WSW 20:10:07 37° S 20:10:10 37° S visible
15 Jun 11.2 22:07:58 10° SW 22:08:22 11° SW 22:08:22 11° SW visible
16 Jun 9.3 17:31:10 10° WNW 17:40:31 67° SSW 17:50:18 10° SE visible
16 Jun 9.8 19:38:17 10° WSW 19:47:04 37° S 19:48:31 36° S visible
16 Jun 11.0 21:45:01 10° SW 21:46:43 16° SW 21:46:43 16° SW visible
17 Jun 9.3 17:08:12 10° WNW 17:17:33 71° SSW 17:27:20 10° SE visible
17 Jun 9.8 19:15:14 10° WSW 19:23:59 38° S 19:26:52 32° SSE visible
17 Jun 10.7 21:22:04 10° SW 21:25:03 21° SW 21:25:03 21° SW visible
18 Jun 9.8 18:52:11 10° WSW 19:00:56 38° S 19:05:12 27° SE visible
18 Jun 10.4 20:59:05 10° SW 21:03:24 27° SW 21:03:24 27° SW visible
19 Jun 9.8 18:29:07 10° W 18:37:53 39° SSW 18:43:33 22° SE visible
19 Jun 10.1 20:36:07 10° SW 20:41:44 32° SSW 20:41:44 32° SSW visible
20 Jun 9.8 18:06:04 10° W 18:14:50 40° SSW 18:21:54 17° SE visible
20 Jun 9.9 20:13:08 10° SW 20:20:05 36° SSW 20:20:05 36° SSW visible
21 Jun 9.8 17:43:01 10° W 17:51:48 41° SSW 18:00:15 12° SE visible
21 Jun 9.7 19:50:10 10° SW 19:58:27 38° S 19:58:27 38° S visible
21 Jun 11.1 21:55:32 10° SW 21:56:39 14° SW 21:56:39 14° SW visible
22 Jun 9.7 17:19:58 10° W 17:28:46 42° SSW 17:37:54 10° SE visible
22 Jun 9.6 19:27:11 10° SW 19:36:00 38° S 19:36:49 37° SSE visible
22 Jun 10.8 21:32:37 10° SW 21:35:01 20° SW 21:35:01 20° SW visible
